Location: Vancouver
(49.2500°N, 123.1330°W)
Time: 11:19:57
(UTC-07:00)

AO-27 - Visible Passes

Search period start: 24 April 2018 00:00
Search period end: 04 May 2018 00:00
Orbit: 785 x 798 km, 98.9° (Epoch: 23 April)

Date Brightness Start Highest point End Pass type
(mag) Time Alt. Az. Time Alt. Az. Time Alt. Az.
24 Apr 8.4 05:10:05 10° NNE 05:15:11 54° E 05:20:15 10° S visible
25 Apr 9.4 04:41:19 10° NNE 04:45:56 31° E 04:50:31 10° SSE visible
26 Apr 10.2 04:13:00 10° NE 04:16:33 18° E 04:20:06 10° SE visible
27 Apr 8.1 05:22:19 10° NNE 05:27:30 68° ESE 05:32:39 10° S visible
28 Apr 9.0 04:53:27 10° NNE 04:58:19 39° E 05:03:09 10° SSE visible
29 Apr 9.9 04:24:54 10° NE 04:28:59 23° E 04:33:03 10° SE visible
30 Apr 10.4 03:57:09 10° ENE 03:59:32 13° E 04:01:54 10° ESE visible
01 May 8.6 05:05:37 10° NNE 05:10:40 49° E 05:15:40 10° S visible
02 May 9.6 04:36:55 10° NE 04:41:23 28° E 04:45:50 10° SSE visible
03 May 10.2 04:08:42 10° NE 04:11:59 17° E 04:15:14 10° SE visible
